This demonstration page uses our WeatherBlox Daily Observations layout. Learn more.

Left ArrowRight Arrow

Hourly Observations for September 8, 2017

Temp ( °F °C ) Dew Point ( °F °C ) Humidity (%) Winds ( mph kmh ) Pressure ( in mb ) Visibility ( mi km ) Precip ( " mm )
12:15 am 00:15 Clear 54 12 54 12 100 100 Calm 30.12 1020 10 16 0.00 0.00
12:35 am 00:35 Clear 55 13 52 11 88 88 SSW 5 7 30.12 1020 10 16 0.00 0.00
12:55 am 00:55 Clear 54 12 52 11 94 94 WSW 5 7 30.12 1020 10 16 0.00 0.00
1:15 am 01:15 Clear 54 12 54 12 100 100 WSW 5 7 30.12 1020 10 16 0.00 0.00
1:35 am 01:35 Clear 54 12 52 11 94 94 SW 6 9 30.12 1020 10 16 0.00 0.00
1:55 am 01:55 Clear 54 12 52 11 94 94 SW 3 6 30.12 1020 10 16 0.00 0.00
2:15 am 02:15 Clear 54 12 52 11 94 94 SSW 3 6 30.12 1020 10 16 0.00 0.00
2:35 am 02:35 Clear 54 12 52 11 94 94 SSW 5 7 30.12 1020 10 16 0.00 0.00
2:55 am 02:55 Clear 54 12 52 11 94 94 SW 7 11 30.12 1020 10 16 0.00 0.00
3:15 am 03:15 Clear 52 11 52 11 100 100 SW 5 7 30.12 1020 10 16 0.00 0.00
3:35 am 03:35 Clear 52 11 52 11 100 100 SSW 5 7 30.12 1020 10 16 0.00 0.00
3:55 am 03:55 Clear 52 11 52 11 100 100 SW 5 7 30.12 1020 10 16 0.00 0.00
4:15 am 04:15 Clear 50 10 50 10 100 100 SW 3 6 30.15 1021 10 16 0.00 0.00
4:35 am 04:35 Clear 52 11 52 11 100 100 SW 3 6 30.12 1020 10 16 0.00 0.00
4:55 am 04:55 Clear 52 11 52 11 100 100 SW 3 6 30.15 1021 10 16 0.00 0.00
5:15 am 05:15 Clear 52 11 52 11 100 100 Calm 30.15 1021 10 16 0.00 0.00
5:35 am 05:35 Clear 52 11 52 11 100 100 WSW 5 7 30.15 1021 10 16 0.00 0.00
5:55 am 05:55 Clear 52 11 52 11 100 100 SW 3 6 30.15 1021 10 16 0.00 0.00
6:15 am 06:15 Clear 52 11 50 10 94 94 SW 3 6 30.15 1021 10 16 0.00 0.00
6:35 am 06:35 Clear 50 10 50 10 100 100 Calm 30.18 1022 10 16 0.00 0.00
6:55 am 06:55 Sunny 52 11 52 11 100 100 S 5 7 30.15 1021 10 16 0.00 0.00
7:15 am 07:15 Sunny 52 11 50 10 94 94 W 3 6 30.21 1023 10 16 0.00 0.00
7:35 am 07:35 Sunny 54 12 52 11 94 94 Calm 30.18 1022 10 16 0.00 0.00
7:55 am 07:55 Sunny 55 13 52 11 88 88 Calm 30.18 1022 10 16 0.00 0.00
8:15 am 08:15 Sunny 55 13 52 11 88 88 S 3 6 30.18 1022 10 16 0.00 0.00
8:35 am 08:35 Sunny 59 15 54 12 82 82 Calm 30.18 1022 10 16 0.00 0.00
8:55 am 08:55 Sunny 61 16 54 12 77 77 Calm 30.18 1022 10 16 0.00 0.00
9:15 am 09:15 Sunny 64 18 55 13 73 73 W 8 13 30.18 1022 10 16 0.00 0.00
9:35 am 09:35 Sunny 64 18 54 12 68 68 W 8 13 30.18 1022 10 16 0.00 0.00
9:55 am 09:55 Sunny 68 20 54 12 60 60 W 8 13 30.18 1022 10 16 0.00 0.00
10:15 am 10:15 Sunny 68 20 55 13 64 64 WNW 9 15 30.18 1022 10 16 0.00 0.00
10:35 am 10:35 Sunny 70 21 54 12 57 57 W 12 19 30.18 1022 10 16 0.00 0.00
10:55 am 10:55 Sunny 70 21 54 12 57 57 WNW 12 19 30.18 1022 10 16 0.00 0.00
11:15 am 11:15 Sunny 70 21 54 12 57 57 WNW 13 20 30.18 1022 10 16 0.00 0.00
11:35 am 11:35 Partly Cloudy 72 22 54 12 53 53 WNW 8 13 30.18 1022 10 16 0.00 0.00
11:55 am 11:55 Mostly Cloudy 72 22 55 13 57 57 NW 7 11 30.18 1022 10 16 0.00 0.00
12:15 pm 12:15 Cloudy 70 21 55 13 60 60 W 13 20 30.18 1022 10 16 0.00 0.00
12:35 pm 12:35 Cloudy 72 22 55 13 57 57 W 5 7 30.18 1022 10 16 0.00 0.00
12:55 pm 12:55 Cloudy 72 22 57 14 61 61 W 6 9 30.18 1022 10 16 0.00 0.00
1:15 pm 13:15 Partly Cloudy 73 23 55 13 53 53 WNW 9 15 30.18 1022 10 16 0.00 0.00
1:35 pm 13:35 Partly Cloudy 73 23 55 13 53 53 WNW 8 13 30.18 1022 10 16 0.00 0.00
1:55 pm 13:55 Partly Cloudy 77 25 54 12 44 44 WNW 17 28 30.18 1022 10 16 0.00 0.00
2:15 pm 14:15 Partly Cloudy 73 23 55 13 53 53 NW 8 13 30.18 1022 10 16 0.00 0.00
2:35 pm 14:35 Mostly Cloudy 73 23 54 12 50 50 NW 8 13 30.18 1022 10 16 0.00 0.00
2:55 pm 14:55 Mostly Cloudy 73 23 54 12 50 50 NW 8 13 30.18 1022 10 16 0.00 0.00
3:15 pm 15:15 Mostly Cloudy 73 23 54 12 50 50 WNW 6 9 30.15 1021 10 16 0.00 0.00
3:35 pm 15:35 Mostly Cloudy 77 25 54 12 44 44 NNW 8 13 30.15 1021 10 16 0.00 0.00
3:55 pm 15:55 Cloudy 73 23 54 12 50 50 NNW 8 13 30.15 1021 10 16 0.00 0.00
4:15 pm 16:15 Mostly Cloudy 73 23 54 12 50 50 N 7 11 30.15 1021 10 16 0.00 0.00
4:35 pm 16:35 Partly Cloudy 75 24 54 12 47 47 NW 9 15 30.15 1021 10 16 0.00 0.00
4:55 pm 16:55 Sunny 75 24 54 12 47 47 NW 9 15 30.15 1021 10 16 0.00 0.00
5:15 pm 17:15 Partly Cloudy 73 23 54 12 50 50 NW 9 15 30.15 1021 10 16 0.00 0.00
5:35 pm 17:35 Mostly Cloudy 72 22 54 12 53 53 undefined N/A 30.15 1021 10 16 0.00 0.00
5:55 pm 17:55 Partly Cloudy 73 23 54 12 50 50 WNW 8 13 30.15 1021 10 16 0.00 0.00
6:15 pm 18:15 Partly Cloudy 73 23 52 11 47 47 N 8 13 30.18 1022 10 16 0.00 0.00
6:35 pm 18:35 Partly Cloudy 72 22 54 12 53 53 N 8 13 30.18 1022 10 16 0.00 0.00
6:55 pm 18:55 Partly Cloudy 72 22 54 12 53 53 NNE 5 7 30.18 1022 10 16 0.00 0.00
7:15 pm 19:15 Mostly Cloudy 70 21 54 12 57 57 Calm 30.18 1022 10 16 0.00 0.00
7:35 pm 19:35 Partly Cloudy 68 20 55 13 64 64 N 5 7 30.18 1022 10 16 0.00 0.00
7:55 pm 19:55 Partly Cloudy 68 20 55 13 64 64 N 6 9 30.21 1023 10 16 0.00 0.00
8:15 pm 20:15 Clear 66 19 55 13 68 68 NNE 5 7 30.21 1023 10 16 0.00 0.00
8:35 pm 20:35 Clear 66 19 54 12 64 64 Calm 30.21 1023 10 16 0.00 0.00
8:55 pm 20:55 Clear 63 17 55 13 77 77 Calm 30.21 1023 10 16 0.00 0.00
9:15 pm 21:15 Clear 63 17 55 13 77 77 Calm 30.24 1024 10 16 0.00 0.00
9:35 pm 21:35 Clear 61 16 55 13 83 83 Calm 30.24 1024 10 16 0.00 0.00
9:55 pm 21:55 Clear 63 17 55 13 77 77 S 3 6 30.24 1024 10 16 0.00 0.00
10:15 pm 22:15 Clear 61 16 55 13 83 83 NNE 6 9 30.24 1024 10 16 0.00 0.00
10:35 pm 22:35 Clear 63 17 54 12 73 73 NNE 6 9 30.24 1024 10 16 0.00 0.00
10:55 pm 22:55 Clear 59 15 54 12 82 82 Calm 30.24 1024 10 16 0.00 0.00
11:15 pm 23:15 Clear 57 14 55 13 94 94 SW 3 6 30.24 1024 10 16 0.00 0.00
11:35 pm 23:35 Clear 59 15 54 12 82 82 Calm 30.27 1025 10 16 0.00 0.00
11:55 pm 23:55 Clear 57 14 54 12 88 88 Calm 30.27 1025 10 16 0.00 0.00

Powered by AerisWeather